星链-31609 (STARLINK-31609 )

导读 | 豆包AI

STARLINK-31609是美国太空探索技术公司(SpaceX)于2024年3月19日发射的星链(Starlink)低轨互联网卫星,属于星链星座快速扩张阶段任务。星链项目旨在构建全球覆盖的低轨卫星互联网,为偏远地区提供高速低延迟宽带服务。该卫星入轨后将服务全球已覆盖超150个国家的网络服务,助力增强星链星座容量与覆盖能力,推动全球无缝互联目标实现。

基本信息
目录编号:
59269
目录名称:
STARLINK-31609
国际标识:
2024-050R
轨道中心:
EARTH
卫星名称:
星链-31609
卫星全名:
星链-31609 (STARLINK-31609 )
卫星状态:
在轨 (已飞行726 天)
发射日期:
2024-03-19 UTC
国别 :
美国 (US)
星等 :
--
轨道信息
数据来源 国际轨道数据
星历时间: 2026-03-15T21:11:54+0800
10小时前
查看轨道信息
半长轴: 6853.357km
偏心率: 0.0001297
轨道倾角: 53.160°
近地点辐角 86.974°
升交点赤经 153.923°
平近点角 273.141°
近地点: 474.331km
远地点: 476.109km
周期: 94.105分钟
每日圈数: 15.301985
详细信息
固有亮度:
5
最大亮度:
0.3
卫星平台:
Starlink v2.0 mini
覆盖范围:
全球
运营商:
太空探索技术公司
运营商所在国:
美国
制造商(研发单位):
太空探索技术公司
制造商所在国:
美国
使用方式:
暂无
卫星简介
星链(Starlink)计划是由太空探索技术公司(SpaceX)提出的一个巨型低轨卫星互联网星座项目,计划在2019年至2024年间在太空搭建由约1.2万颗卫星组成的“星链”网络,其中1584颗将部署在地球上空550千米处的近地轨道,并从2020年开始工作。该卫星仍在工作。
2D轨道图
3D轨道图
轨道高度分析图
轨道倾角分析图
轨道综合分析图
查看轨道综合分析图